Starlink 5732

operational
NORAD ID: 55572 Int'l Des: 2023-020 Owner: SPXS Country: US Constellation: starlink
LEOCIRCULAR

关于 Starlink 5732

正在加载描述...

实时位置

正在加载3D地球...

即将过境

高度历史

Altitude vs Time

uPlot chart will show altitude changes over time

两行轨道根数

1 55572U 23020D 26035.69945114 -.00000908 00000-0 -52161-4 0 9994
2 55572 43.0020 184.1668 0001155 257.0858 102.9855 15.02532753163953
Epoch: Feb 4, 2026 • Age: 10 hours

当前状态

高度 558.3 km
速度 7.59 km/s
星下点 14.08°N, 165.07°E
发射日期 Feb 12, 2023
运行时间 2.9 years
类型 internet

技术详情

分类 Payload
质量 305.00 kg
干质量 290.00 kg
总质量 305.00 kg
长度 0.20 m
直径 2.80 m
跨度 9.00 m
形状 Box + pan
制造商 SPXS
平台类型 Starlink
阶段状态 In Orbit
所有者/国家 SPXS/US

大型星座

Loading constellations...